Torna al catalogo

BSAT-1B

AttivoComunicazioniGEO
NORAD 25312·PAYLOAD·🇯🇵 Japan

Lanciato Apr 28, 1998 da Guiana Space Centre

Loading…

TLE

AggiornatoSource: Space-Track

Epoca: Sep 14, 2026, 05:07 UTC

1 25312U 98024B   26257.21371736 -.00000258  00000-0  00000-0 0  9994
2 25312  11.6678  43.7316 0003942 223.3143 137.7753  0.99122328 47048

Traccia BSAT-1B in tempo reale con AllMySat

Download on the App Store